"Pseudo-MPEC" for X78618

Created 2022 Aug 28 14:22:44 UT using Find_Orb

Click here for an explanation of pseudo-MPECs

 
 Astrometry: 
     X78618 * C2022 08 07ppAstrometryjQ8:VC8UtZg_redacted;iclick'tY]Dwd.v7K#.D29
     X78618   C2022 08 07N=(E3rP%f`HXvl][[V;UTl?bBV3F?cG;QsEV9,YLU_k#!oXUaRr*D29
     X78618   C2022 08 07._*here'UGNpx!pUohA$w_=B_tC.RSforJ^%.mexplanationd8tD29

Station data:
(D29) Purple Mountain Observatory, XuYi Station  (N32.734363 E118.463900)
   China.  Observers H. B. Zhao, B. Li, G. Zhaori, R. Q. Hong, L. F. Hu.
   Measurers H. B. Zhao, B. Li. H. Lu, G. Zhaori. 1.04-m f/1.8 Schmidt + CCD.

Orbital elements:  X78618
   Perihelion 2022 Jul 7.45341 +/- 50.2 TT = 10:52:54 (JD 2459767.95341)
Epoch 2022 Aug  8.0 TT = JDT 2459799.5   Earth MOID: 0.3427   Ma: 0.0785
M   8.95133574 +/- 32               (J2000 ecliptic)          AutoNEOCP
n   0.28374969 +/- 0.34             Peri.   82.51835 +/- 110
a   2.29357235 +/- 1.83             Node   219.97021 +/- 39
e   0.4137022 +/- 0.256             Incl.    4.76115 +/- 12
P   3.47                   H 20.9   G  0.15   U 12.0  SR
q 1.34471621 +/- 0.604    Q 3.24242849 +/- 55.2
From 3 observations 2022 Aug. 7 (40.7 min); mean residual 0".03
Residuals in arcseconds: 
220807 D29  .02+  .02+    220807 D29  .05-  .04-    220807 D29  .03+  .02+    

Ephemerides (geocentric):
Date (UTC) HH   RA             Dec           delta  r     elong  mag " sig PA
---- --------  ------------   ------------  ------ ------ -----  --- --------
2022 08 28 14  23 10 27.126   +09 15 27.43  .44353 1.4315 158.2 20.8  75d   6
2022 08 28 15  23 10 26.591   +09 15 05.91  .44359 1.4316 158.2 20.8  75d   6
2022 08 28 16  23 10 26.054   +09 14 44.34  .44366 1.4317 158.3 20.8  75d   6
2022 08 28 17  23 10 25.515   +09 14 22.72  .44373 1.4319 158.3 20.8  75d   6
2022 08 28 18  23 10 24.975   +09 14 01.07  .44380 1.4320 158.3 20.8  75d   6
2022 08 28 19  23 10 24.433   +09 13 39.37  .44386 1.4321 158.4 20.8  75d   6
2022 08 28 20  23 10 23.889   +09 13 17.63  .44393 1.4323 158.4 20.8  75d   6
2022 08 28 21  23 10 23.344   +09 12 55.84  .44400 1.4324 158.5 20.8  75d   6
2022 08 28 22  23 10 22.797   +09 12 34.02  .44407 1.4325 158.5 20.8  75d   6
2022 08 28 23  23 10 22.248   +09 12 12.15  .44413 1.4327 158.5 20.8  75d   6
2022 08 29 00  23 10 21.698   +09 11 50.24  .44420 1.4328 158.6 20.8  75d   6
2022 08 29 01  23 10 21.146   +09 11 28.29  .44427 1.4329 158.6 20.8  76d   6
2022 08 29 02  23 10 20.593   +09 11 06.29  .44434 1.4331 158.6 20.8  76d   6
2022 08 29 03  23 10 20.038   +09 10 44.26  .44441 1.4332 158.7 20.8  76d   6
2022 08 29 04  23 10 19.481   +09 10 22.18  .44448 1.4333 158.7 20.8  76d   6
2022 08 29 05  23 10 18.923   +09 10 00.06  .44455 1.4335 158.8 20.8  76d   6
2022 08 29 06  23 10 18.363   +09 09 37.90  .44462 1.4336 158.8 20.8  76d   6
2022 08 29 07  23 10 17.801   +09 09 15.70  .44469 1.4337 158.8 20.8  76d   6
2022 08 29 08  23 10 17.238   +09 08 53.45  .44476 1.4339 158.9 20.8  76d   6
2022 08 29 09  23 10 16.674   +09 08 31.17  .44483 1.4340 158.9 20.8  76d   6
2022 08 29 10  23 10 16.108   +09 08 08.84  .44490 1.4341 159.0 20.8  76d   6
2022 08 29 11  23 10 15.540   +09 07 46.47  .44497 1.4343 159.0 20.8  76d   6
2022 08 29 12  23 10 14.971   +09 07 24.07  .44504 1.4344 159.0 20.8  76d   6
2022 08 29 13  23 10 14.400   +09 07 01.62  .44511 1.4345 159.1 20.8  76d   6
2022 08 29 14  23 10 13.828   +09 06 39.13  .44519 1.4347 159.1 20.8  76d   6
2022 08 29 15  23 10 13.254   +09 06 16.59  .44526 1.4348 159.1 20.8  76d   6
2022 08 29 16  23 10 12.679   +09 05 54.02  .44533 1.4349 159.2 20.8  76d   6
2022 08 29 17  23 10 12.102   +09 05 31.41  .44540 1.4351 159.2 20.8  76d   6
2022 08 29 18  23 10 11.524   +09 05 08.76  .44548 1.4352 159.2 20.8  76d   6
2022 08 29 19  23 10 10.944   +09 04 46.06  .44555 1.4353 159.3 20.8  76d   6
2022 08 29 20  23 10 10.363   +09 04 23.33  .44562 1.4355 159.3 20.8  76d   6
2022 08 29 21  23 10 09.780   +09 04 00.56  .44570 1.4356 159.4 20.8  76d   6
2022 08 29 22  23 10 09.196   +09 03 37.74  .44577 1.4357 159.4 20.8  76d   6
2022 08 29 23  23 10 08.611   +09 03 14.89  .44584 1.4359 159.4 20.8  76d   6
2022 08 30 00  23 10 08.024   +09 02 51.99  .44592 1.4360 159.5 20.8  76d   6
2022 08 30 01  23 10 07.435   +09 02 29.06  .44599 1.4361 159.5 20.8  76d   6
2022 08 30 02  23 10 06.846   +09 02 06.08  .44607 1.4363 159.5 20.8  76d   6
2022 08 30 03  23 10 06.255   +09 01 43.07  .44614 1.4364 159.6 20.8  76d   6
2022 08 30 04  23 10 05.662   +09 01 20.02  .44622 1.4365 159.6 20.8  76d   6
2022 08 30 05  23 10 05.068   +09 00 56.93  .44629 1.4367 159.7 20.8  76d   6
2022 08 30 06  23 10 04.473   +09 00 33.79  .44637 1.4368 159.7 20.8  76d   6
2022 08 30 07  23 10 03.876   +09 00 10.62  .44644 1.4369 159.7 20.8  76d   6
2022 08 30 08  23 10 03.278   +08 59 47.41  .44652 1.4371 159.8 20.8  76d   6
2022 08 30 09  23 10 02.679   +08 59 24.16  .44660 1.4372 159.8 20.8  76d   6
2022 08 30 10  23 10 02.078   +08 59 00.87  .44667 1.4373 159.8 20.8  76d   6
2022 08 30 11  23 10 01.476   +08 58 37.55  .44675 1.4375 159.9 20.8  76d   6
2022 08 30 12  23 10 00.873   +08 58 14.18  .44683 1.4376 159.9 20.8  76d   6
2022 08 30 13  23 10 00.268   +08 57 50.77  .44690 1.4377 160.0 20.8  76d   6